Location: Bannatyne
(13.0833°N, 59.5333°W)
Time: 09:30:13
(UTC+00:00)

Vanguard 2 Rocket - Pass Details

Date: 20 January 2020
Orbit: 554 x 3326 km, 32.9° (Epoch: 28 March)

Event Time Altitude Azimuth Distance (km) Brightness Sun altitude
Rises 05:36:38 0° 200° (SSW) 3,090 - -67.8°
Reaches altitude 10° 05:41:35 10° 154° (SSE) 1,873 - -66.7°
Maximum altitude 05:42:00 10° 148° (SSE) 1,851 - -66.6°
Drops below altitude 10° 05:42:25 10° 142° (SE) 1,847 - -66.5°
Sets 05:46:52 0° 93° (E) 2,739 - -65.5°
